Temp
-8 -8 -8 -8 -8 -8 -8 -8 -8 -8 -8 -8 -7 -7 -7 -7 -7 -7 -7 -8 -8 -8 -8 -9 -9 -9 -9 -9 -9 -10 -10 -10 -10 -10 -10 -10 -10 -10 -11 -11 -11 -12 -12
-8 -8 -8 -8 -8 -8 -8 -7 -8 -8 -8 -8 -8 -7 -7 -7 -8 -8 -8 -8 -8 -8 -8 -8 -8 -9 -9 -9 -9 -10 -10 -10 -10 -10 -10 -10 -11 -11 -11 -11 -12 -12 -12
-8 -8 -8 -8 -8 -8 -8 -8 -8 -8 -8 -8 -8 -8 -8 -8 -8 -8 -8 -8 -8 -8 -8 -8 -9 -9 -9 -9 -9 -10 -10 -11 -11 -11 -11 -11 -11 -11 -12 -12 -12 -13 -13
-8 -8 -9 -9 -9 -9 -9 -8 -8 -8 -8 -8 -8 -8 -8 -8 -8 -8 -8 -9 -9 -9 -9 -9 -9 -10 -10 -10 -10 -10 -11 -11 -11 -11 -11 -12 -12 -12 -12 -13 -13 -13 -13
-8 -9 -9 -9 -9 -9 -9 -8 -8 -8 -8 -8 -8 -9 -9 -9 -9 -9 -9 -9 -9 -9 -9 -9 -10 -10 -10 -10 -10 -11 -11 -11 -11 -12 -12 -12 -13 -13 -13 -14 -14 -14 -14
-9 -9 -9 -9 -9 -9 -9 -9 -9 -9 -9 -9 -9 -9 -8 -9 -9 -9 -9 -10 -10 -10 -10 -10 -10 -11 -11 -11 -11 -11 -11 -12 -12 -12 -12 -13 -13 -13 -14 -14 -14 -15 -15
-9 -9 -9 -9 -9 -10 -10 -9 -9 -9 -9 -9 -9 -9 -9 -9 -9 -9 -10 -10 -10 -11 -11 -11 -11 -11 -11 -12 -12 -12 -12 -12 -12 -12 -13 -13 -13 -14 -14 -14 -14 -15 -15
-10 -10 -10 -10 -10 -10 -9 -9 -10 -9 -9 -9 -9 -9 -9 -9 -9 -9 -10 -10 -10 -11 -11 -11 -11 -11 -11 -12 -12 -13 -13 -13 -13 -13 -13 -13 -14 -14 -14 -14 -15 -15 -15
-10 -10 -10 -10 -10 -10 -10 -10 -10 -10 -9 -10 -10 -10 -9 -9 -9 -10 -10 -10 -10 -10 -11 -11 -12 -12 -12 -12 -12 -13 -13 -14 -14 -13 -14 -14 -14 -14 -14 -14 -15 -15 -15
-10 -10 -10 -10 -10 -10 -10 -10 -10 -10 -9 -9 -10 -11 -11 -10 -10 -9 -10 -10 -10 -10 -11 -11 -11 -12 -13 -13 -13 -13 -13 -14 -14 -15 -15 -14 -14 -14 -13 -13 -14 -14 -15
-10 -10 -10 -10 -10 -10 -10 -10 -10 -10 -10 -10 -10 -10 -11 -11 -11 -11 -10 -10 -10 -11 -11 -11 -11 -11 -12 -14 -15 -16 -16 -16 -16 -16 -15 -16 -15 -14 -14 -14 -14 -14 -15
-10 -10 -10 -10 -10 -10 -10 -10 -10 -11 -11 -11 -11 -11 -11 -11 -11 -11 -11 -11 -11 -11 -11 -11 -11 -12 -13 -14 -15 -16 -17 -17 -17 -17 -16 -16 -16 -15 -15 -15 -15 -15 -15
-10 -10 -10 -10 -10 -10 -10 -11 -11 -11 -11 -11 -12 -12 -12 -12 -12 -12 -11 -11 -11 -10 -11 -11 -12 -12 -13 -14 -16 -17 -18 -18 -18 -18 -18 -17 -16 -16 -16 -16 -15 -15 -15
-11 -10 -10 -10 -10 -11 -11 -11 -12 -12 -12 -12 -12 -12 -12 -12 -12 -12 -12 -13 -12 -12 -12 -12 -14 -17 -17 -18 -19 -19 -20 -20 -20 -19 -19 -18 -17 -17 -17 -16 -16 -16 -16
-10 -10 -10 -11 -11 -12 -12 -12 -12 -12 -12 -12 -12 -12 -12 -13 -13 -14 -16 -17 -19 -18 -17 -17 -20 -21 -21 -21 -21 -22 -22 -22 -21 -21 -20 -19 -18 -18 -18 -17 -17 -16 -16
-10 -10 -11 -11 -12 -12 -13 -12 -12 -12 -12 -13 -13 -13 -13 -14 -15 -17 -20 -22 -23 -23 -23 -22 -22 -22 -22 -22 -22 -22 -22 -23 -23 -22 -21 -20 -20 -19 -18 -18 -18 -17 -17
-11 -11 -12 -13 -13 -13 -13 -13 -13 -13 -13 -13 -13 -14 -15 -17 -20 -21 -22 -23 -23 -24 -24 -23 -23 -23 -23 -23 -23 -23 -23 -23 -23 -23 -22 -22 -21 -20 -20 -19 -18 -18 -18
-12 -13 -13 -13 -13 -13 -13 -13 -13 -13 -13 -14 -15 -17 -20 -22 -23 -24 -24 -24 -24 -24 -24 -24 -23 -23 -23 -23 -23 -23 -23 -23 -23 -23 -23 -22 -22 -22 -21 -21 -20 -19 -19
-13 -13 -13 -13 -14 -14 -14 -14 -14 -14 -15 -16 -19 -22 -23 -23 -23 -23 -24 -24 -24 -24 -24 -24 -24 -24 -24 -23 -23 -23 -23 -23 -23 -23 -23 -23 -23 -22 -22 -22 -21 -20 -19
-13 -14 -14 -14 -14 -14 -14 -15 -15 -16 -18 -21 -23 -23 -23 -23 -23 -23 -23 -23 -23 -24 -24 -24 -24 -24 -23 -23 -23 -23 -23 -23 -23 -23 -23 -23 -23 -23 -23 -22 -22 -21 -20
-14 -14 -15 -15 -15 -15 -15 -16 -18 -20 -23 -23 -23 -23 -23 -23 -24 -24 -25 -24 -25 -25 -25 -25 -25 -25 -24 -24 -23 -23 -23 -23 -23 -23 -23 -23 -23 -22 -22 -23 -22 -22 -21
-15 -15 -15 -15 -16 -17 -18 -20 -22 -23 -23 -23 -23 -23 -24 -25 -25 -25 -25 -25 -26 -27 -27 -28 -27 -26 -25 -26 -25 -24 -23 -23 -23 -24 -23 -23 -23 -23 -23 -23 -23 -22 -22
-16 -16 -16 -16 -17 -20 -22 -23 -24 -24 -24 -23 -23 -24 -25 -25 -26 -25 -25 -25 -26 -28 -29 -29 -29 -29 -29 -28 -27 -26 -24 -23 -22 -23 -23 -23 -23 -23 -22 -22 -23 -23 -22
-16 -16 -16 -18 -21 -23 -24 -24 -24 -24 -24 -24 -25 -25 -25 -26 -26 -26 -26 -26 -27 -28 -29 -30 -31 -31 -30 -30 -28 -27 -25 -23 -23 -24 -23 -22 -23 -23 -22 -22 -23 -22 -22
-17 -17 -19 -21 -23 -24 -25 -25 -24 -24 -24 -25 -25 -26 -26 -27 -27 -27 -27 -26 -27 -28 -29 -30 -30 -30 -30 -30 -29 -27 -26 -25 -24 -25 -24 -23 -24 -23 -23 -22 -23 -23 -23
-18 -19 -21 -23 -25 -25 -25 -25 -24 -24 -25 -26 -26 -26 -27 -27 -27 -27 -28 -27 -27 -27 -28 -29 -30 -30 -30 -29 -28 -27 -27 -26 -25 -25 -24 -24 -24 -23 -23 -23 -23 -22 -22
Height
5820 5818 5815 5812 5809 5806 5804 5801 5798 5796 5793 5791 5788 5786 5784 5781 5778 5776 5774 5770 5768 5765 5762 5760 5757 5755 5753 5751 5749 5747 5745 5743 5741 5739 5738 5736 5734 5733 5731 5730 5729 5727 5725
5812 5809 5805 5802 5798 5796 5794 5792 5789 5787 5785 5782 5779 5777 5774 5772 5769 5765 5763 5760 5757 5753 5751 5748 5745 5742 5739 5737 5736 5734 5731 5730 5728 5727 5726 5725 5723 5721 5719 5717 5716 5714 5713
5803 5799 5796 5793 5790 5787 5785 5782 5780 5778 5776 5773 5771 5767 5765 5762 5759 5756 5752 5750 5747 5743 5739 5737 5734 5731 5727 5724 5722 5720 5719 5717 5715 5713 5712 5711 5710 5708 5706 5705 5703 5702 5701
5795 5792 5789 5786 5783 5779 5776 5774 5772 5770 5768 5765 5762 5759 5756 5752 5748 5745 5742 5738 5735 5731 5728 5724 5719 5718 5715 5713 5709 5706 5704 5703 5701 5700 5698 5696 5694 5693 5692 5691 5690 5689 5688
5787 5784 5781 5778 5776 5773 5769 5767 5764 5762 5759 5755 5752 5749 5745 5742 5737 5733 5729 5725 5721 5718 5714 5711 5707 5702 5698 5695 5692 5690 5688 5686 5684 5683 5682 5681 5680 5679 5677 5677 5676 5675 5674
5778 5776 5773 5771 5769 5766 5762 5759 5756 5752 5748 5744 5741 5738 5734 5731 5727 5722 5716 5711 5707 5704 5699 5695 5691 5687 5683 5679 5675 5673 5671 5669 5668 5666 5665 5664 5662 5661 5661 5660 5660 5660 5660
5771 5768 5766 5763 5760 5757 5753 5749 5746 5742 5737 5731 5728 5725 5722 5718 5712 5708 5704 5700 5695 5689 5684 5679 5675 5670 5667 5662 5658 5655 5652 5650 5649 5649 5647 5645 5644 5644 5644 5643 5643 5643 5643
5764 5761 5758 5755 5751 5747 5742 5738 5734 5730 5725 5718 5712 5707 5705 5706 5701 5696 5691 5685 5680 5674 5669 5663 5657 5652 5648 5644 5640 5636 5633 5631 5629 5628 5628 5628 5628 5627 5626 5626 5627 5627 5628
5757 5753 5750 5746 5742 5738 5733 5728 5723 5717 5712 5707 5698 5689 5685 5683 5679 5678 5675 5670 5664 5658 5652 5646 5640 5634 5627 5622 5619 5616 5613 5610 5607 5607 5607 5607 5609 5609 5609 5608 5608 5610 5611
5749 5745 5741 5736 5732 5728 5723 5717 5711 5704 5697 5691 5685 5677 5668 5659 5653 5656 5653 5646 5639 5634 5630 5625 5619 5612 5605 5600 5597 5595 5591 5587 5585 5584 5582 5585 5587 5588 5590 5591 5591 5592 5593
5741 5737 5732 5728 5722 5717 5710 5703 5696 5688 5680 5672 5664 5656 5649 5641 5630 5623 5630 5624 5617 5610 5606 5600 5593 5586 5580 5575 5572 5571 5567 5564 5562 5562 5560 5561 5565 5566 5568 5569 5570 5573 5574
5731 5726 5721 5715 5708 5702 5694 5687 5678 5670 5662 5653 5644 5635 5626 5618 5607 5597 5589 5595 5590 5590 5581 5575 5564 5558 5550 5544 5541 5540 5538 5537 5536 5536 5539 5540 5540 5540 5543 5544 5546 5549 5552
5721 5715 5708 5702 5694 5687 5679 5671 5662 5654 5645 5635 5625 5616 5605 5593 5582 5570 5557 5555 5550 5556 5553 5550 5533 5525 5519 5513 5508 5506 5504 5506 5506 5507 5509 5514 5515 5518 5517 5520 5524 5527 5532
5708 5702 5695 5688 5679 5671 5662 5654 5645 5636 5626 5615 5604 5592 5580 5566 5553 5540 5526 5512 5509 5510 5515 5517 5501 5490 5483 5481 5479 5475 5476 5478 5479 5480 5482 5483 5487 5491 5493 5496 5503 5505 5511
5694 5685 5678 5669 5660 5652 5643 5634 5624 5614 5603 5591 5578 5565 5551 5539 5525 5511 5497 5485 5468 5460 5473 5488 5467 5463 5457 5456 5453 5449 5449 5452 5454 5456 5456 5457 5458 5461 5467 5472 5476 5483 5490
5677 5669 5660 5650 5641 5631 5622 5613 5603 5591 5580 5566 5553 5541 5524 5510 5498 5485 5472 5462 5451 5434 5425 5452 5451 5440 5437 5436 5432 5429 5429 5428 5430 5430 5431 5432 5432 5434 5438 5444 5452 5458 5463
5661 5651 5642 5632 5622 5612 5602 5592 5580 5568 5556 5544 5529 5514 5498 5484 5472 5462 5452 5442 5433 5420 5404 5424 5416 5419 5416 5412 5413 5409 5408 5408 5408 5408 5409 5408 5407 5408 5414 5420 5426 5432 5440
5644 5634 5624 5613 5603 5591 5580 5569 5558 5546 5533 5518 5502 5487 5473 5459 5449 5439 5429 5421 5409 5402 5387 5381 5391 5393 5388 5388 5387 5388 5386 5386 5386 5388 5386 5386 5387 5388 5391 5394 5400 5409 5416
5627 5616 5605 5594 5583 5570 5558 5546 5534 5520 5504 5488 5472 5459 5447 5434 5425 5413 5403 5393 5383 5375 5366 5354 5355 5362 5360 5360 5358 5360 5361 5361 5363 5364 5364 5365 5367 5368 5370 5372 5376 5384 5392
5610 5598 5586 5573 5560 5547 5533 5520 5507 5493 5479 5464 5450 5436 5422 5406 5394 5383 5372 5362 5352 5342 5336 5328 5323 5324 5327 5331 5326 5327 5331 5331 5335 5335 5338 5341 5344 5345 5349 5352 5357 5366 5371
5591 5579 5567 5553 5537 5522 5508 5495 5482 5468 5456 5443 5428 5412 5396 5380 5366 5354 5342 5335 5323 5315 5306 5297 5292 5287 5290 5291 5293 5294 5294 5300 5304 5304 5308 5314 5317 5321 5326 5331 5337 5344 5351
5573 5560 5545 5531 5515 5499 5486 5471 5457 5446 5435 5418 5402 5389 5374 5358 5345 5335 5324 5313 5304 5290 5281 5270 5264 5256 5258 5256 5258 5260 5265 5268 5271 5278 5277 5286 5288 5297 5305 5312 5320 5324 5330
5555 5540 5525 5510 5494 5479 5466 5452 5439 5426 5412 5395 5377 5365 5355 5340 5328 5319 5311 5301 5291 5278 5262 5248 5240 5236 5231 5231 5231 5235 5239 5244 5246 5252 5254 5260 5265 5274 5284 5293 5301 5306 5313
5536 5522 5505 5487 5475 5460 5446 5432 5419 5406 5392 5374 5358 5344 5334 5325 5313 5301 5293 5286 5277 5265 5252 5243 5230 5222 5217 5216 5214 5216 5220 5224 5228 5233 5232 5239 5248 5255 5264 5275 5284 5290 5299
5517 5500 5483 5468 5454 5443 5427 5412 5397 5386 5372 5357 5343 5328 5317 5309 5298 5286 5276 5269 5263 5254 5244 5232 5222 5213 5207 5206 5203 5204 5208 5209 5214 5219 5218 5223 5232 5240 5249 5260 5269 5276 5284
5495 5480 5465 5447 5434 5424 5410 5394 5378 5363 5352 5342 5330 5317 5305 5294 5283 5272 5263 5254 5249 5243 5234 5227 5216 5207 5200 5197 5198 5197 5198 5199 5203 5210 5208 5213 5220 5227 5238 5247 5255 5262 5271
Wind_Speed
30 33 35 39 43 45 44 43 42 41 40 41 41 42 42 43 43 44 44 46 47 47 48 49 50 50 50 51 51 52 52 51 51 50 49 48 48 48 48 48 47 46 44
35 37 39 41 43 42 40 40 40 39 39 40 41 42 42 42 42 42 43 43 46 48 49 50 51 52 52 53 53 53 53 52 51 51 50 50 50 50 51 51 50 49 47
35 37 37 36 35 34 33 34 35 35 35 36 37 40 41 41 42 43 44 45 47 49 51 51 52 52 54 55 55 54 52 52 52 53 53 53 53 52 53 53 52 50 49
34 34 32 32 32 32 32 33 35 36 37 38 40 43 44 47 48 49 50 51 52 53 54 55 57 57 57 57 58 58 58 57 57 57 56 56 56 55 53 52 51 51 51
32 31 30 31 32 34 36 37 39 41 42 44 46 47 49 50 51 53 54 56 57 57 58 58 59 60 61 61 62 62 62 61 61 60 59 58 56 56 55 52 52 51 51
33 32 32 34 36 38 40 42 43 46 47 49 50 51 52 51 51 51 53 54 55 55 57 59 59 60 61 62 63 64 63 63 63 63 61 60 58 57 56 55 52 52 52
35 36 37 39 41 42 44 46 48 49 50 53 54 55 54 54 55 56 55 56 56 57 59 61 62 63 63 64 64 65 65 65 64 62 61 60 59 59 58 57 55 53 52
38 40 41 43 44 46 47 47 48 50 53 57 60 62 61 59 59 59 60 62 63 64 65 66 68 69 69 68 68 67 68 67 67 66 64 62 60 60 59 58 57 54 53
41 43 43 43 43 44 46 50 54 57 59 61 64 68 69 69 69 68 68 68 69 69 70 70 71 71 73 73 72 73 72 71 70 70 69 66 63 63 60 61 60 57 56
43 43 42 44 47 50 53 57 61 64 67 69 69 70 73 77 80 79 77 77 78 78 78 78 78 77 75 76 76 75 75 74 73 68 68 68 65 62 63 62 64 61 60
41 42 46 50 53 58 63 67 69 71 73 75 77 79 79 79 82 84 83 83 85 87 88 90 91 89 85 78 75 75 76 76 75 74 73 72 68 62 66 63 65 65 62
45 48 52 55 59 63 67 70 72 74 75 77 79 81 83 86 89 92 94 92 93 93 95 96 96 94 90 85 82 79 76 78 80 81 78 74 68 72 74 70 65 66 66
48 51 55 59 64 67 70 72 74 77 79 81 83 86 89 92 96 100 104 104 105 102 101 99 101 100 97 92 86 81 79 77 79 83 83 83 70 70 66 67 67 66 64
52 55 61 65 69 71 72 74 76 78 81 84 87 91 96 99 102 104 106 108 108 107 103 99 96 89 86 81 76 74 72 73 75 78 82 84 88 87 83 68 64 59 64
59 65 69 71 72 74 75 78 80 84 87 91 95 97 99 102 104 103 100 97 94 98 96 84 80 71 69 65 64 65 66 68 69 72 76 80 83 84 85 84 85 75 54
69 72 73 75 76 78 80 83 85 88 93 96 97 100 102 103 100 96 90 84 81 82 83 70 65 65 62 60 59 61 61 61 64 69 74 79 82 85 85 84 83 83 78
72 74 75 76 78 81 84 86 90 94 96 97 100 100 98 95 89 84 80 79 79 81 84 75 71 65 64 63 60 59 59 58 58 60 65 72 71 68 76 84 80 76 78
73 74 76 79 82 85 88 92 94 95 97 100 98 93 86 81 79 79 80 80 81 81 85 85 77 72 72 70 68 65 65 63 62 60 61 63 69 70 70 66 78 82 75
74 77 80 83 86 90 93 95 95 99 100 95 89 84 84 87 87 87 87 88 88 88 88 91 89 82 80 78 77 74 72 71 68 66 65 63 63 65 68 67 63 71 72
78 81 84 87 92 94 95 97 99 96 90 84 84 88 90 89 88 86 87 88 89 91 92 95 96 94 91 87 87 85 82 80 76 75 71 67 66 66 65 65 65 61 65
81 84 88 92 93 95 96 95 92 87 83 84 89 91 88 84 82 80 79 78 78 77 77 79 81 85 88 90 90 89 90 86 81 78 73 70 69 69 65 61 63 60 63
84 88 91 92 94 93 90 86 84 84 85 89 91 85 79 76 74 69 67 69 72 74 74 75 72 71 71 72 71 75 77 75 72 68 69 63 65 66 67 62 58 60 62
86 90 91 93 89 85 81 80 83 84 87 91 85 78 72 69 64 63 64 62 63 63 64 64 58 52 51 49 53 53 57 58 59 57 58 57 59 59 64 63 58 57 61
88 91 91 88 81 78 79 81 82 85 88 84 76 71 67 60 61 65 62 60 56 53 52 50 49 46 44 41 41 40 41 43 45 44 48 47 50 55 60 60 58 56 57
89 88 86 82 78 77 78 80 84 87 84 74 68 66 60 59 61 62 60 56 51 48 46 46 44 43 42 36 35 32 30 34 32 30 39 40 41 48 55 57 57 55 52
87 85 80 79 77 76 78 82 87 87 75 68 64 61 58 59 58 56 56 55 50 48 45 38 37 37 37 33 29 25 22 23 23 20 31 34 36 41 47 53 55 54 52
Wind_Direction
290 292 292 292 291 290 289 287 286 285 285 284 283 284 285 286 286 286 285 285 285 284 284 284 284 283 283 284 284 284 285 285 285 285 285 286 287 287 286 287 288 285 283
294 293 294 292 290 288 288 289 288 289 288 288 288 288 289 289 289 289 289 289 288 287 286 284 284 284 284 283 282 282 282 282 283 283 284 285 285 285 285 285 286 284 282
296 297 294 294 292 293 295 292 291 290 289 289 290 290 290 291 291 290 289 289 287 287 287 286 285 284 284 284 284 283 282 282 282 282 282 283 282 283 283 284 284 283 282
294 293 295 294 293 295 294 292 292 293 293 292 290 289 289 289 290 290 289 288 287 286 285 285 285 284 284 285 285 284 283 282 281 280 280 280 280 280 280 281 281 282 281
294 292 291 291 292 291 291 291 291 292 291 290 289 289 290 291 291 291 291 291 291 291 290 289 288 287 286 284 282 281 280 279 278 276 276 276 276 277 278 278 278 279 279
292 290 290 291 291 290 290 290 291 292 292 290 290 292 292 293 293 292 291 291 291 291 291 291 289 287 286 285 284 283 281 278 277 276 275 274 272 271 271 271 271 272 274
292 292 291 291 293 293 294 295 297 299 299 299 298 296 296 294 294 293 292 291 292 292 292 291 290 289 287 284 283 282 281 280 278 276 273 272 269 268 268 268 268 267 266
293 294 296 297 299 301 302 302 301 301 301 301 300 298 296 293 292 292 292 292 291 290 290 289 288 287 286 284 282 280 280 278 278 276 274 272 270 268 267 265 263 262 261
298 300 301 301 301 300 300 301 301 302 302 300 299 299 296 294 292 291 289 288 288 287 287 287 285 283 282 281 281 280 278 276 275 275 274 270 269 266 264 263 261 259 258
300 300 300 302 303 303 303 303 303 302 302 300 297 296 297 296 295 292 291 291 290 289 288 288 287 285 281 278 276 275 273 271 270 271 268 268 270 266 263 266 262 258 255
298 299 302 303 304 305 305 305 304 303 302 302 301 300 298 297 296 295 291 289 289 289 289 291 291 289 285 279 273 270 268 266 263 263 263 264 265 263 260 261 261 259 256
303 304 306 308 311 312 310 307 305 303 302 301 299 298 298 297 296 296 295 293 291 291 291 290 289 287 284 281 277 271 262 260 259 256 254 256 258 253 260 257 257 256 254
303 305 307 308 308 308 306 305 303 302 301 300 299 299 300 299 299 298 297 295 293 290 289 289 287 285 284 280 276 271 265 259 254 254 254 249 249 253 255 257 254 254 253
303 305 308 308 308 307 305 303 302 301 300 301 301 301 301 301 299 298 297 296 293 291 290 289 284 282 280 278 275 272 266 263 260 255 252 253 251 249 252 251 255 254 256
309 311 311 309 308 306 306 305 304 303 303 303 303 303 302 301 300 298 297 295 294 293 289 287 286 282 280 279 276 273 269 266 263 260 256 253 252 250 249 250 248 247 247
312 311 310 310 309 308 307 305 305 304 304 305 304 303 302 301 299 297 295 295 294 292 290 289 283 281 281 279 276 274 273 270 265 262 260 256 257 252 248 248 247 248 247
311 311 310 309 307 306 305 305 305 306 306 305 304 304 302 299 297 295 294 293 292 290 288 286 282 279 278 277 275 274 274 272 271 266 262 263 265 260 253 250 250 247 244
311 310 309 308 307 306 307 307 307 307 307 307 305 303 301 300 299 297 294 292 290 288 287 286 282 279 278 276 275 274 274 274 271 269 267 263 263 262 263 255 250 246 245
311 309 309 308 307 308 308 309 309 310 310 308 307 306 304 301 298 295 292 289 286 284 282 282 281 279 277 276 274 274 274 274 273 271 267 264 263 262 262 261 251 246 243
310 310 309 309 310 311 312 313 313 312 309 308 307 307 305 303 301 298 294 291 288 285 283 280 279 277 275 273 273 273 271 272 272 271 268 264 259 257 258 259 255 250 245
311 310 311 313 314 315 315 313 312 310 309 309 310 310 308 306 304 302 301 299 297 296 294 291 287 282 278 273 271 269 271 271 270 269 266 262 256 252 252 253 255 252 246
311 313 315 316 316 315 314 312 310 310 312 313 313 311 310 308 307 306 305 303 306 305 303 302 298 292 284 279 274 271 270 270 269 266 263 258 254 246 248 248 250 251 247
315 317 317 317 315 314 313 311 311 313 315 316 315 312 310 308 306 305 306 310 311 309 306 307 306 300 292 285 278 272 267 266 265 264 260 255 251 243 240 243 244 248 248
317 317 318 316 315 314 314 313 314 316 318 317 315 313 311 308 307 308 308 310 313 313 309 307 304 302 296 293 285 277 269 262 263 263 259 252 245 241 235 237 240 244 243
320 320 318 316 316 316 315 316 316 319 319 317 317 315 312 311 311 309 309 311 315 315 316 313 309 303 298 293 286 278 274 269 262 257 255 252 244 234 232 235 239 242 242
322 319 317 317 317 317 317 318 320 321 318 317 316 315 312 313 311 311 314 315 314 316 317 311 303 299 295 291 289 287 278 271 264 246 247 247 242 233 229 232 236 239 241